EW4806 Weather Reports


Display with metric or nautical units.
time (UTC)temp
F
wind
direction
speed
MPH
gust
MPH
rain 1hr
in
rain 24hr
in
rain mn
in
humidity
%
barometer
mb
20260503015942 77 265 1.0 8.0 0.00 0.00 0.00 39 1007.9
20260503014442 78 287 1.0 7.0 0.00 0.00 0.00 38 1007.7
20260503012942 78 274 1.0 8.0 0.00 0.00 0.00 37 1007.6
20260503012144 79 320 1.0 4.0 0.00 0.00 0.00 37 1007.7
20260503005938 79 288 1.0 9.0 0.00 0.00 0.00 37 1007.7
20260503004438 80 334 0.0 0.0 0.00 0.00 0.00 36 1007.7
20260503002937 80 258 0.0 0.0 0.00 0.00 0.00 36 1007.7
20260503001438 80 204 0.0 0.0 0.00 0.00 0.00 37 1007.8
20260502235936 78 89 0.0 0.0 0.00 0.00 0.00 40 1007.9
20260502234435 77 204 0.0 0.0 0.00 0.00 0.00 41 1008.1
20260502232936 78 270 0.0 3.0 0.00 0.00 0.00 39 1008.3
20260502231436 75 314 0.0 2.0 0.00 0.00 0.00 43 1008.7
20260502225935 75 268 0.0 5.0 0.00 0.00 0.00 43 1009.0
20260502224437 75 179 0.0 5.0 0.00 0.00 0.00 43 1009.3
20260502222936 75 278 0.0 3.0 0.00 0.00 0.00 43 1009.5
20260502221434 75 284 0.0 7.0 0.00 0.00 0.00 43 1009.7
20260502215932 74 216 0.0 7.0 0.00 0.00 0.00 44 1009.9
20260502214433 73 249 0.0 2.0 0.00 0.00 0.00 46 1010.3
20260502212933 72 286 0.0 1.0 0.00 0.00 0.00 47 1010.5
20260502212121 71 283 0.0 0.0 0.00 0.00 0.00 47 1010.7
20260502210628 71 280 0.0 2.0 0.00 0.00 0.00 47 1010.9
20260502204429 70 319 0.0 3.0 0.00 0.00 0.00 49 1011.2
20260502202930 68 291 0.0 4.0 0.00 0.00 0.00 51 1011.3
20260502201429 67 337 0.0 6.0 0.00 0.00 0.00 51 1011.6
20260502195931 67 294 0.0 6.0 0.00 0.00 0.00 52 1011.8
20260502194430 66 269 0.0 4.0 0.00 0.00 0.00 53 1012.0
20260502192930 66 260 0.0 9.0 0.00 0.00 0.00 53 1012.1
20260502192120 65 231 0.0 3.0 0.00 0.00 0.00 53 1012.4
20260502185929 65 312 0.0 2.0 0.00 0.00 0.00 55 1012.6
20260502184429 64 226 0.0 2.0 0.00 0.00 0.00 56 1012.8
20260502182930 63 199 0.0 2.0 0.00 0.00 0.00 58 1013.0
20260502181429 62 328 0.0 1.0 0.00 0.00 0.00 59 1013.1
20260502180631 62 229 0.0 4.0 0.00 0.00 0.00 60 1013.3
20260502162920 57 124 0.0 0.0 0.00 0.00 0.00 67 1014.1
20260502161419 57 124 0.0 0.0 0.00 0.00 0.00 68 1014.2
20260502151417 55 280 0.0 1.0 0.00 0.00 0.00 72 1014.2
20260502122859 52 213 0.0 0.0 0.00 0.00 0.00 78 1013.6
20260502122056 52 213 0.0 0.0 0.00 0.00 0.00 77 1013.8
20260502115856 52 213 0.0 0.0 0.00 0.00 0.00 77 1013.9
20260502115809 53 213 0.0 0.0 0.00 0.00 0.00 76 1013.9
20260502112856 53 213 0.0 0.0 0.00 0.00 0.00 76 1013.9
20260502112041 53 213 0.0 0.0 0.00 0.00 0.00 76 1014.0
20260502110545 53 214 0.0 0.0 0.00 0.00 0.00 75 1014.1
20260502105043 53 214 0.0 0.0 0.00 0.00 0.00 75 1014.1
20260502102850 54 213 0.0 0.0 0.00 0.00 0.00 74 1014.1
20260502101348 54 213 0.0 0.0 0.00 0.00 0.00 74 1014.2
20260502071341 59 328 0.0 0.0 0.00 0.00 0.00 65 1014.9
20260502065841 60 250 0.0 0.0 0.00 0.00 0.00 64 1015.0
20260502064340 60 250 0.0 1.0 0.00 0.00 0.00 63 1015.0
20260502062839 60 224 0.0 1.0 0.00 0.00 0.00 63 1015.1
20260502061339 61 249 0.0 0.0 0.00 0.00 0.00 62 1015.1
20260502055839 61 247 0.0 0.0 0.00 0.00 0.00 62 1015.1
20260502055030 62 260 0.0 0.0 0.00 0.00 0.00 61 1015.2
20260502052836 62 260 0.0 0.0 0.00 0.00 0.00 61 1015.0
20260502052733 62 246 0.0 0.0 0.00 0.00 0.00 60 1015.2
20260502045836 63 263 0.0 1.0 0.00 0.00 0.00 59 1014.9
20260502044335 63 247 0.0 9.0 0.00 0.00 0.00 59 1014.8
20260502042835 64 278 0.0 2.0 0.00 0.00 0.00 59 1014.6
20260502041335 64 231 0.0 4.0 0.00 0.00 0.00 58 1014.5
20260502035834 65 261 0.0 8.0 0.00 0.00 0.00 57 1014.3
20260502034332 65 291 0.0 4.0 0.00 0.00 0.00 55 1013.9
20260502032830 66 283 0.0 2.0 0.00 0.00 0.00 54 1013.8
20260502031330 66 297 0.0 10.0 0.00 0.00 0.00 53 1013.6
20260502025830 67 309 1.0 8.0 0.00 0.00 0.00 51 1013.5
20260502025021 68 287 1.0 9.0 0.00 0.00 0.00 49 1013.2
20260502022830 69 312 0.0 6.0 0.00 0.00 0.00 48 1013.1